Change the Weather History Date:

Saturday, November 22, 2014

  Actual Average (KBJC) Record (KBJC)
Temperature  
Mean Temperature 44 °F -  
Max Temperature 63 °F 48 °F 73 °F (1998)
Min Temperature 25 °F 28 °F 3 °F (1985)
Degree Days  
Heating Degree Days 21    
Moisture  
Dew Point 20 °F    
Average Humidity 45    
Maximum Humidity 79    
Minimum Humidity 12    
Precipitation  
Precipitation 0.00 in - - ()
Sea Level Pressure  
Sea Level Pressure 29.68 in    
Wind  
Wind Speed 4 mph (SSW)    
Max Wind Speed 16 mph    
Max Gust Speed 26 mph    
Visibility 10 miles    
Events      
Averages and records for this station are not official NWS values.
T = Trace of Precipitation, MM = Missing Value Source: NWS Daily Summary

Daily Weather History Graph

Daily Weather History Graph

Search for Another Location

Airport or City:

Trip Planner

Search our weather history database for the weather conditions in past years. The results will help you decide how hot, cold, wet, or windy it might be!

Date:

Astronomy

Nov. 22, 2014 Rise Set
Actual Time 6:53 AM MST 4:39 PM MST
Civil Twilight 6:23 AM MST 5:08 PM MST
Nautical Twilight 5:50 AM MST 5:41 PM MST
Astronomical Twilight 5:18 AM MST 6:13 PM MST
Moon 6:52 AM MST (11/22) 5:11 PM MST (11/22)
Length of Visible Light 10h 44m
Length of Day
9h 45m
New Moon, 0% of the Moon is Illuminated
Nov 22
New Moon
Nov 29
First Quarter
Dec 6
Full
Dec 14
Last Quarter
Dec 21
New

Hourly Weather History & Observations

Time (MST) Temp. Windchill Dew Point Humidity Pressure Visibility Wind Dir Wind Speed Gust Speed Precip Events Conditions
12:15 AM 31.1 °F 26.4 °F 19.4 °F 62% 29.93 in 10.0 mi South 4.6 mph - N/A   Clear
12:35 AM 28.6 °F - 19.0 °F 67% 29.92 in 10.0 mi Calm Calm - N/A   Clear
12:55 AM 27.7 °F - 19.2 °F 71% 29.92 in 10.0 mi Calm Calm - N/A   Clear
1:15 AM 27.0 °F - 19.4 °F 73% 29.91 in 10.0 mi Calm Calm - N/A   Clear
1:35 AM 25.3 °F 19.7 °F 19.6 °F 79% 29.90 in 10.0 mi South 4.6 mph - N/A   Clear
1:55 AM 28.2 °F 21.0 °F 19.8 °F 71% 29.88 in 10.0 mi SSW 6.9 mph - N/A   Clear
2:15 AM 29.1 °F 24.1 °F 18.7 °F 65% 29.88 in 10.0 mi SSW 4.6 mph - N/A   Clear
2:35 AM 28.4 °F 22.2 °F 18.9 °F 67% 29.87 in 10.0 mi WSW 5.8 mph - N/A   Clear
2:55 AM 31.8 °F 26.2 °F 18.1 °F 57% 29.86 in 10.0 mi South 5.8 mph - N/A   Clear
3:15 AM 33.3 °F 24.1 °F 17.6 °F 53% 29.85 in 10.0 mi South 12.7 mph - N/A   Clear
3:35 AM 32.2 °F - 17.2 °F 54% 29.84 in 10.0 mi Calm Calm - N/A   Clear
3:55 AM 31.6 °F - 16.3 °F 53% 29.83 in 10.0 mi Calm Calm - N/A   Clear
4:15 AM 30.7 °F - 16.3 °F 55% 29.81 in 10.0 mi Calm Calm - N/A   Clear
4:35 AM 26.6 °F - 17.4 °F 68% 29.80 in 10.0 mi Calm Calm - N/A   Clear
4:55 AM 29.5 °F - 16.7 °F 59% 29.79 in 10.0 mi Calm Calm - N/A   Clear
5:15 AM 32.0 °F 26.4 °F 15.8 °F 51% 29.79 in 10.0 mi NNW 5.8 mph - N/A   Clear
5:35 AM 30.0 °F 24.1 °F 17.4 °F 59% 29.78 in 10.0 mi ESE 5.8 mph - N/A   Clear
5:55 AM 34.3 °F 30.2 °F 16.5 °F 48% 29.77 in 10.0 mi South 4.6 mph - N/A   Clear
6:15 AM 28.2 °F - 18.3 °F 66% 29.77 in 10.0 mi Calm Calm - N/A   Clear
6:35 AM 27.7 °F - 18.1 °F 67% 29.77 in 10.0 mi Calm Calm - N/A   Clear
6:55 AM 30.0 °F - 18.3 °F 62% 29.77 in 10.0 mi Calm Calm - N/A   Clear
7:15 AM 29.3 °F 25.6 °F 18.3 °F 64% 29.75 in 10.0 mi SSE 3.5 mph - N/A   Clear
7:35 AM 31.3 °F - 21.0 °F 66% 29.73 in 10.0 mi Calm Calm - N/A   Clear
7:55 AM 36.5 °F - 23.9 °F 60% 29.73 in 10.0 mi Calm Calm - N/A   Clear
8:15 AM 43.0 °F 40.3 °F 24.8 °F 49% 29.73 in 10.0 mi NNW 4.6 mph - N/A   Clear
8:35 AM 45.7 °F 43.4 °F 22.3 °F 40% 29.73 in 10.0 mi North 4.6 mph - N/A   Clear
8:55 AM 51.6 °F - 21.0 °F 30% 29.73 in 10.0 mi North 5.8 mph - N/A   Clear
9:15 AM 53.6 °F - 18.1 °F 25% 29.72 in 10.0 mi ENE 4.6 mph - N/A   Clear
9:35 AM 53.6 °F - 15.3 °F 22% 29.72 in 10.0 mi East 4.6 mph - N/A   Clear
9:55 AM 55.4 °F - 14.5 °F 20% 29.71 in 10.0 mi ESE 9.2 mph - N/A   Clear
10:15 AM 55.6 °F - 15.8 °F 21% 29.70 in 10.0 mi East 10.4 mph - N/A   Clear
10:35 AM 56.7 °F - 13.3 °F 18% 29.68 in 10.0 mi East 6.9 mph - N/A   Clear
10:55 AM 57.4 °F - 15.3 °F 19% 29.66 in 10.0 mi ESE 9.2 mph - N/A   Clear
11:15 AM 60.4 °F - 12.7 °F 15% 29.64 in 10.0 mi SE 5.8 mph - N/A   Clear
11:35 AM 62.1 °F - 10.8 °F 13% 29.62 in 10.0 mi WSW 9.2 mph - N/A   Clear
11:55 AM 63.5 °F - 10.2 °F 12% 29.60 in 10.0 mi West 11.5 mph - N/A   Clear
12:15 PM 60.4 °F - 11.3 °F 14% 29.60 in 10.0 mi WSW 9.2 mph 20.7 mph N/A   Clear
12:35 PM 59.5 °F - 11.7 °F 15% 29.59 in 10.0 mi West 8.1 mph - N/A   Clear
12:55 PM 60.1 °F - 13.8 °F 16% 29.58 in 10.0 mi NNE 6.9 mph - N/A   Clear
1:15 PM 58.1 °F - 14.5 °F 18% 29.58 in 10.0 mi NNE 8.1 mph - N/A   Clear
1:35 PM 57.6 °F - 15.4 °F 19% 29.57 in 10.0 mi Calm Calm - N/A   Clear
1:55 PM 58.6 °F - 15.1 °F 18% 29.57 in 10.0 mi East 5.8 mph - N/A   Clear
2:15 PM 61.3 °F - 16.9 °F 18% 29.56 in 10.0 mi North 16.1 mph - N/A   Clear
2:55 PM 50.4 °F - 28.2 °F 42% 29.58 in 10.0 mi Calm Calm - N/A   Clear
3:15 PM 49.1 °F - 28.9 °F 46% 29.58 in 10.0 mi Calm Calm - N/A   Clear
3:35 PM 47.1 °F - 30.0 °F 51% 29.58 in 10.0 mi North 6.9 mph - N/A   Clear
3:55 PM 45.5 °F - 30.7 °F 56% 29.58 in 10.0 mi Calm Calm - N/A   Clear
4:15 PM 43.2 °F 36.6 °F 30.7 °F 62% 29.61 in 10.0 mi West 12.7 mph - N/A   Clear
4:35 PM 53.6 °F - 22.1 °F 29% 29.60 in 10.0 mi WSW 13.8 mph 26.5 mph N/A   Clear
4:55 PM 53.6 °F - 21.7 °F 29% 29.60 in 10.0 mi West 15.0 mph 21.9 mph N/A   Clear
5:15 PM 48.0 °F - 24.8 °F 40% 29.58 in 10.0 mi Calm Calm - N/A   Clear
5:35 PM 45.0 °F 41.2 °F 25.7 °F 47% 29.61 in 10.0 mi West 6.9 mph - N/A   Clear
5:55 PM 50.2 °F - 21.0 °F 32% 29.60 in 10.0 mi Calm Calm - N/A   Clear
6:15 PM 45.5 °F 41.8 °F 24.1 °F 43% 29.58 in 10.0 mi East 6.9 mph - N/A   Clear
6:35 PM 45.0 °F 41.2 °F 23.4 °F 43% 29.58 in 10.0 mi SE 6.9 mph - N/A   Clear
6:55 PM 42.3 °F - 24.3 °F 49% 29.58 in 10.0 mi Calm Calm - N/A   Clear
7:15 PM 46.9 °F - 23.9 °F 40% 29.59 in 10.0 mi West 6.9 mph - N/A   Clear
7:35 PM 43.3 °F 40.7 °F 25.2 °F 49% 29.60 in 10.0 mi West 4.6 mph - N/A   Clear
7:55 PM 45.0 °F 40.1 °F 25.3 °F 46% 29.60 in 10.0 mi WNW 9.2 mph - N/A   Clear
8:15 PM 43.0 °F 41.3 °F 25.2 °F 49% 29.59 in 10.0 mi South 3.5 mph - N/A   Clear
8:35 PM 47.5 °F - 24.4 °F 41% 29.57 in 10.0 mi Calm Calm - N/A   Clear
8:55 PM 48.9 °F - 24.4 °F 38% 29.57 in 10.0 mi Calm Calm - N/A   Clear
9:15 PM 44.1 °F - 25.2 °F 47% 29.55 in 10.0 mi Calm Calm - N/A   Clear
9:35 PM 41.9 °F 39.0 °F 25.9 °F 53% 29.55 in 10.0 mi North 4.6 mph - N/A   Clear
9:55 PM 37.2 °F 33.6 °F 25.7 °F 63% 29.54 in 10.0 mi ESE 4.6 mph - N/A   Clear
10:15 PM 36.7 °F 34.1 °F 25.9 °F 65% 29.55 in 10.0 mi West 3.5 mph - N/A   Clear
10:35 PM 35.8 °F 31.9 °F 26.6 °F 69% 29.55 in 10.0 mi SSE 4.6 mph - N/A   Clear
10:55 PM 38.8 °F 35.4 °F 27.0 °F 62% 29.56 in 10.0 mi NNW 4.6 mph - N/A   Clear
11:15 PM 43.3 °F 39.2 °F 26.4 °F 51% 29.57 in 10.0 mi North 6.9 mph - N/A   Mostly Cloudy
11:35 PM 46.9 °F - 27.5 °F 47% 29.57 in 10.0 mi NNW 8.1 mph - N/A   Mostly Cloudy
11:55 PM 46.4 °F 41.5 °F 26.4 °F 46% 29.56 in 10.0 mi North 10.4 mph 23.0 mph N/A   Mostly Cloudy